Weather History for KNDZ - March, 2014

Change the Weather History Date:

Monday, March 31, 2014

  Actual Average (KNSE) Record (KNSE)
Temperature  
Mean Temperature 56 °F -  
Max Temperature 75 °F 72 °F 84 °F (2012)
Min Temperature 36 °F 52 °F 32 °F (2003)
Degree Days  
Heating Degree Days 10    
Growing Degree Days 6 (Base 50)    
Moisture  
Dew Point 39 °F    
Average Humidity 57    
Maximum Humidity 93    
Minimum Humidity 24    
Precipitation  
Precipitation 0.00 in - - ()
Sea Level Pressure  
Sea Level Pressure 30.11 in    
Wind  
Wind Speed 4 mph (South)    
Max Wind Speed 13 mph    
Max Gust Speed 18 mph    
Visibility 10 miles    
Events      
Averages and records for this station are not official NWS values.
T = Trace of Precipitation, MM = Missing Value Source: NWS Daily Summary

Daily Weather History Graph

Daily Weather History Graph

Search for Another Location

Airport or City:

Trip Planner

Search our weather history database for the weather conditions in past years. The results will help you decide how hot, cold, wet, or windy it might be!

Date:

Astronomy

Mar. 31, 2014 Rise Set
Actual Time 6:38 AM CDT 7:06 PM CDT
Civil Twilight 6:14 AM CDT 7:30 PM CDT
Nautical Twilight 5:45 AM CDT 7:59 PM CDT
Astronomical Twilight 5:16 AM CDT 8:28 PM CDT
Moon 7:05 AM CDT (3/31) 8:18 PM CDT (3/31)
Length of Visible Light 13h 16m
Length of Day
12h 28m
New Moon, 1% of the Moon is Illuminated
Mar 31
New Moon
Apr 7
First Quarter
Apr 15
Full
Apr 22
Last Quarter
Apr 29
New

Hourly Weather History & Observations

Time (CDT) Temp. Windchill Dew Point Humidity Pressure Visibility Wind Dir Wind Speed Gust Speed Precip Events Conditions
12:56 AM 41.0 °F 39.0 °F 37.9 °F 89% 30.11 in 10.0 mi WNW 3.5 mph - N/A   Clear
1:56 AM 46.9 °F - 37.9 °F 71% 30.08 in 10.0 mi ENE 3.5 mph - N/A   Clear
2:56 AM 39.0 °F 36.8 °F 37.0 °F 93% 30.09 in 10.0 mi WNW 3.5 mph - N/A   Clear
3:56 AM 39.9 °F 37.8 °F 37.0 °F 89% 30.09 in 10.0 mi WNW 3.5 mph - N/A   Clear
4:56 AM 36.0 °F - 33.1 °F 89% 30.10 in 10.0 mi Calm Calm - N/A   Clear
5:56 AM 37.9 °F - 34.0 °F 86% 30.11 in 10.0 mi Calm Calm - N/A   Clear
6:56 AM 44.1 °F 40.1 °F 35.1 °F 71% 30.12 in 10.0 mi NE 6.9 mph - N/A   Clear
7:56 AM 51.1 °F - 39.9 °F 66% 30.14 in 10.0 mi Calm Calm - N/A   Scattered Clouds
8:56 AM 57.9 °F - 39.9 °F 51% 30.15 in 10.0 mi East 8.1 mph - N/A   Partly Cloudy
9:56 AM 64.0 °F - 39.0 °F 40% 30.16 in 10.0 mi East 5.8 mph - N/A   Clear
10:56 AM 69.1 °F - 35.1 °F 29% 30.16 in 10.0 mi Variable 4.6 mph - N/A   Clear
11:56 AM 73.0 °F - 36.0 °F 26% 30.15 in 10.0 mi Variable 3.5 mph - N/A   Clear
12:56 PM 75.0 °F - 36.0 °F 24% 30.13 in 10.0 mi Variable 5.8 mph - N/A   Partly Cloudy
1:56 PM 75.0 °F - 39.0 °F 27% 30.11 in 10.0 mi South 12.7 mph 18.4 mph N/A   Scattered Clouds
2:56 PM 75.0 °F - 39.0 °F 27% 30.10 in 10.0 mi South 11.5 mph - N/A   Mostly Cloudy
3:56 PM 73.9 °F - 37.9 °F 27% 30.08 in 10.0 mi South 10.4 mph - N/A   Scattered Clouds
4:56 PM 71.1 °F - 41.0 °F 34% 30.08 in 10.0 mi South 11.5 mph - N/A   Scattered Clouds
5:56 PM 68.0 °F - 41.0 °F 37% 30.08 in 10.0 mi South 9.2 mph - N/A   Scattered Clouds
6:56 PM 62.1 °F - 42.1 °F 48% 30.08 in 10.0 mi South 6.9 mph - N/A   Scattered Clouds
7:56 PM 60.1 °F - 42.1 °F 51% 30.09 in 10.0 mi SSW 4.6 mph - N/A   Scattered Clouds
8:56 PM 57.0 °F - 45.0 °F 64% 30.10 in 10.0 mi South 3.5 mph - N/A   Partly Cloudy
9:56 PM 55.0 °F - 46.0 °F 72% 30.10 in 10.0 mi South 3.5 mph - N/A   Partly Cloudy
10:56 PM 48.9 °F - 44.1 °F 83% 30.10 in 10.0 mi Calm Calm - N/A   Clear
11:56 PM 46.9 °F - 43.0 °F 86% 30.10 in 10.0 mi Calm Calm - N/A   Clear